x

Manteo / Dare County Regional Weather Station

4:15am - Fri 18th Apr 2014 All times are EDT. -4 hours from GMT.

  • Wind
    16mph, 25mph gusts
  • Air Temp 46°f
  • Sea Pressure 1029.1mb
  • Manteo / Dare County Regional
  • Manteo / Dare County Regional

More Historic Weather Station data

Upgrade to MSW Pro to gain access to the past 30 days of data for over 8000 Wavebouys and Weather Stations around the globe.

Join Pro

Comparision Forecast

View Surf forecast
   
Fri 04/18 4:15am 16 25 mph 1029.1mb 46f
3:55am 18 25 mph 1029.1mb 46f
3:15am 16 22 mph 1029.1mb 46f
2:55am 15 25 mph 1029.5mb 46f
2:15am 21 25 mph 1030.1mb 46f
1:55am 18 28 mph 1030.5mb 46f
1:15am 17
mph
1031.2mb 46f
12:55am 22 25 mph 1031.8mb 46f
12:15am 21 25 mph 1031.8mb 46f
Thu 04/17 11:55pm 20
mph
1031.8mb 46f
11:15pm 20
mph
1031.8mb 46f
10:55pm 18 24 mph 1031.8mb 46f
10:15pm 20 27 mph 1032.2mb 46f
9:55pm 17 29 mph 1031.8mb 46f
9:15pm 17 25 mph 1031.8mb 46f
8:55pm 18 29 mph 1031.5mb 46f
8:15pm 17 27 mph 1031.8mb 46f
7:55pm 17 25 mph 1031.8mb 46f
7:15pm 17 28 mph 1031.8mb 47f
6:55pm 21 27 mph 1032.2mb 48f
6:15pm 20 27 mph 1032.5mb 48f
5:55pm 20 28 mph 1032.5mb 49f
5:15pm 18 27 mph 1032.9mb 51f
4:55pm 21 27 mph 1032.9mb 50f
4:15pm 17 29 mph 1032.5mb 52f
3:55pm 21 29 mph 1032.5mb 50f
3:15pm 22 29 mph 1032.9mb 51f
2:55pm 22 30 mph 1032.9mb 52f
2:15pm 23 29 mph 1033.2mb 53f
1:55pm 22 31 mph 1033.5mb 52f
1:35pm 22 30 mph 1033.9mb 53f
1:15pm 22 31 mph 1033.9mb 52f
12:55pm 24 33 mph 1033.9mb 52f
12:35pm 23 30 mph 1033.9mb 51f
12:15pm 25 32 mph 1033.9mb 52f
11:55am 20 29 mph 1033.9mb 51f
11:35am 21 28 mph 1033.9mb 51f
11:15am 20 29 mph 1033.9mb 53f
10:55am 25 33 mph 1033.9mb 50f
10:35am 21 31 mph 1033.9mb 51f
10:15am 22 29 mph 1033.5mb 51f
9:55am 21 30 mph 1033.5mb 51f
9:15am 20 27 mph 1032.9mb 50f
8:55am 18 28 mph 1032.9mb 49f
8:35am 21 27 mph 1032.9mb 49f
8:15am 20 27 mph 1032.9mb 48f
7:55am 17 22 mph 1032.9mb 47f
7:15am 22 29 mph 1032.2mb 46f
6:55am 18 27 mph 1032.2mb 45f
6:15am 20 27 mph 1031.2mb 45f
5:55am 21 25 mph 1031.2mb 45f
5:15am 20 27 mph 1030.8mb 44f
4:55am 20 27 mph 1030.8mb 44f
4:15am 18 27 mph 1030.8mb 44f
3:55am 17 25 mph 1030.8mb 44f
3:15am 17 22 mph 1030.8mb 44f
2:55am 18 24 mph 1030.5mb 44f
2:15am 17 21 mph 1030.8mb 44f
1:55am 17 25 mph 1030.8mb 43f
1:15am 17 25 mph 1030.8mb 43f
12:55am 17 31 mph 1031.2mb 43f
12:15am 18 24 mph 1031.5mb 43f
Wed 04/16 11:55pm 20 27 mph 1031.5mb 42f
11:15pm 17 25 mph 1031.5mb 42f
10:55pm 14 21 mph 1031.8mb 42f
10:15pm 14 25 mph 1032.2mb 42f
9:55pm 15
mph
1031.8mb 41f
9:15pm 14 21 mph 1031.8mb 41f
8:55pm 15 20 mph 1031.5mb 41f
8:15pm 13
mph
1031.2mb 41f
7:55pm 16 22 mph 1030.8mb 41f
7:15pm 17 27 mph 1030.1mb 42f
6:55pm 23 31 mph 1030.1mb 43f
6:15pm 20 27 mph 1029.8mb 44f
5:55pm 17 29 mph 1029.5mb 44f
5:35pm 17 29 mph 1029.1mb 44f
5:15pm 18 30 mph 1028.8mb 44f
4:55pm 22 28 mph 1029.1mb 44f
4:35pm 16 27 mph 1028.8mb 44f
4:15pm 16 27 mph 1029.1mb 45f
3:55pm 20 29 mph 1029.1mb 45f
3:15pm 23 30 mph 1029.1mb 46f
2:55pm 22 27 mph 1029.1mb 45f
2:15pm 21 29 mph 1029.1mb 45f
1:55pm 24 29 mph 1029.1mb 44f
1:15pm 23 33 mph 1028.8mb 45f
12:55pm 24 32 mph 1028.4mb 45f
12:15pm 27 36 mph 1028.1mb 44f
11:55am 24 35 mph 1028.1mb 44f
11:15am 28 36 mph 1028.1mb 43f
10:55am 24 36 mph 1028.1mb 43f
10:15am 22 33 mph 1027.1mb 43f
9:55am 25 35 mph 1026.4mb 42f
9:15am 23 32 mph 1025.4mb 42f
8:55am 18 36 mph 1024.7mb 43f
8:15am 25 38 mph 1024mb 40f
7:55am 23 35 mph 1023.4mb 41f
7:15am 22 32 mph 1022.7mb 40f
6:55am 22 39 mph 1022mb 40f
6:15am 27 33 mph 1020.7mb 41f
5:55am 16 32 mph 1020.3mb 42f
5:15am 23 37 mph 1019.3mb 42f
4:55am 24 38 mph 1019mb 42f
4:15am 24 38 mph 1018.3mb 41f
3:55am 24 33 mph 1017.6mb 41f
3:15am 25 41 mph 1016.9mb 42f
2:55am 29 40 mph 1015.9mb 42f
2:15am 27 38 mph 1015.6mb 42f
1:55am 27 35 mph 1015.9mb 42f
1:15am 27 39 mph 1014.2mb 44f
12:55am 30 43 mph 1013.2mb 44f
12:15am 25 40 mph 1012.9mb 46f
Tue 04/15 11:55pm 27 40 mph 1012.2mb 46f
11:15pm 29 47 mph 1009.8mb 46f
10:55pm 36 48 mph 1009.1mb 46f
10:15pm 27 37 mph 1008.1mb 65f
9:55pm 12
mph
1006.1mb 67f
9:15pm 14
mph
1005.8mb 67f
8:55pm 13
mph
1005.4mb 68f
8:15pm 24 29 mph 1005.4mb 69f
7:55pm 21 25 mph 1005.1mb 68f
7:15pm 20 23 mph 1004.4mb 67f
6:55pm 16 21 mph 1004.7mb 67f
6:15pm 20
mph
1005.8mb 68f
5:55pm 17
mph
1006.1mb 68f
5:15pm 17
mph
1006.1mb 71f
4:55pm 23
mph
1006.1mb 71f
4:15pm 17
mph
1006.1mb 71f
3:55pm 20
mph
1006.4mb 70f
3:15pm 24
mph
1006.8mb 69f
2:55pm 23 28 mph 1006.8mb 69f
2:15pm 21 24 mph 1007.1mb 68f
1:55pm 21
mph
1007.1mb 68f
1:15pm 27 31 mph 1007.8mb 69f
12:55pm 27 35 mph 1008.1mb 69f
12:15pm 27 31 mph 1008.1mb 69f
11:55am 25 31 mph 1008.5mb 69f
11:15am 24 28 mph 1008.8mb 70f
10:55am 23 28 mph 1009.1mb 69f
10:15am 24 29 mph 1009.5mb 69f
9:55am 24
mph
1009.8mb 69f
9:15am 23
mph
1009.5mb 68f
8:55am 23 29 mph 1009.8mb 68f
8:15am 28 32 mph 1009.8mb 68f
7:55am 21 29 mph 1009.8mb 67f
7:15am 23 30 mph 1010.2mb 67f
6:55am 23 30 mph 1010.2mb 67f
6:35am 24 32 mph 1010.2mb 67f
6:15am 21 28 mph 1010.2mb 68f
5:55am 16
mph
1010.5mb 67f
5:15am 16 25 mph 1010.8mb 68f
4:55am 16
mph
1010.8mb 68f
4:15am 18 24 mph 1011.5mb 68f
3:55am 16 22 mph 1011.5mb 67f
3:15am 18
mph
1012.2mb 67f
2:55am 21 28 mph 1012.5mb 68f
2:15am 20 27 mph 1012.5mb 68f
1:55am 18 25 mph 1012.9mb 68f
1:35am 20 27 mph 1012.9mb 68f
1:15am 18
mph
1013.5mb 68f
12:55am 17 23 mph 1013.5mb 68f
12:15am 16
mph
1014.2mb 68f
Mon 04/14 11:55pm 20 25 mph 1014.2mb 68f
11:15pm 14
mph
1014.6mb 68f
10:55pm 14
mph
1014.9mb 67f
10:15pm 10
mph
1015.2mb 67f
9:55pm 16
mph
1015.2mb 67f
9:15pm 12
mph
1015.6mb 67f
8:55pm 15
mph
1015.6mb 67f
8:15pm 14
mph
1015.6mb 66f
7:55pm 16
mph
1015.6mb 67f
7:15pm 13
mph
1015.2mb 68f
6:55pm 15
mph
1015.6mb 68f
6:15pm 14
mph
1015.9mb 70f
5:55pm 15
mph
1015.9mb 70f
5:15pm 15
mph
1016.3mb 72f
4:55pm 16 21 mph 1016.3mb 73f
4:15pm 17
mph
1016.3mb 73f
3:55pm 16 23 mph 1016.6mb 72f
3:15pm 17 22 mph 1017.3mb 73f
2:55pm 15
mph
1017.6mb 72f
2:15pm 15 22 mph 1018mb 72f
1:55pm 14 27 mph 1018.3mb 71f
1:15pm 14 21 mph 1018.6mb 72f
12:55pm 13 18 mph 1019.3mb 71f
12:35pm 14
mph
1019.6mb 71f
12:15pm 13 18 mph 1019.6mb 71f
11:55am 14 21 mph 1020mb 72f
11:15am 14 21 mph 1020.3mb 70f
10:55am 15
mph
1020.3mb 70f
10:15am 14 18 mph 1020.3mb 70f
9:55am 13
mph
1020.7mb 68f
9:15am 15
mph
1020.3mb 69f
8:55am 15
mph
1020.3mb 68f